This is the latest recevied weather packets stored in our database for station/object KQ7A. If no packets are shown the sender has not sent any weather packets the latest 10 day(s).
| Time | Temp. | Humidity | Pressure | Rain* | Wind** | Luminosity | Snow |
|---|---|---|---|---|---|---|---|
| 1788107606 | 18.89° C | 38% | 1020.7 hPa | 0 mm | - | 563 W/m² | - |
| 1788107300 | 18.33° C | 42% | 1020.8 hPa | 0 mm | - | 495 W/m² | - |
| 1788106997 | 17.78° C | 44% | 1020.6 hPa | 0 mm | - | 439 W/m² | - |
| 1788106692 | 17.78° C | 47% | 1020.9 hPa | 0 mm | - | 419 W/m² | - |
| 1788106391 | 17.22° C | 50% | 1020.7 hPa | 0 mm | - | 398 W/m² | - |
| 1788106086 | 17.22° C | 49% | 1020.9 hPa | 0 mm | - | 374 W/m² | - |
| 1788105782 | 16.67° C | 48% | 1020.9 hPa | 0 mm | - | 350 W/m² | - |
| 1788105477 | 16.67° C | 51% | 1020.8 hPa | 0 mm | - | 328 W/m² | - |
| 1788105174 | 16.11° C | 49% | 1021.1 hPa | 0 mm | - | 310 W/m² | - |
| 1788104874 | 16.11° C | 48% | 1021.1 hPa | 0 mm | - | 301 W/m² | - |
| 1788104569 | 15.56° C | 55% | 1021.1 hPa | 0 mm | - | 280 W/m² | - |
| 1788104266 | 15.56° C | 53% | 1021.1 hPa | 0 mm | - | 262 W/m² | - |
| 1788103961 | 14.44° C | 55% | 1020.9 hPa | 0 mm | - | 249 W/m² | - |
| 1788103659 | 13.89° C | 60% | 1021.1 hPa | 0 mm | - | 232 W/m² | - |
| 1788103354 | 13.33° C | 61% | 1020.8 hPa | 0 mm | - | 207 W/m² | - |
| 1788103048 | 12.78° C | 62% | 1021.2 hPa | 0 mm | - | 196 W/m² | - |
| 1788102748 | 12.22° C | 64% | 1021.1 hPa | 0 mm | - | 183 W/m² | - |
| 1788102443 | 12.22° C | 68% | 1020.9 hPa | 0 mm | - | 161 W/m² | - |
| 1788102137 | 12.78° C | 66% | 1021.2 hPa | 0 mm | - | 114 W/m² | - |
| 1788101832 | 13.89° C | 63% | 1021.1 hPa | 0 mm | - | 89 W/m² | - |
| 1788101527 | 13.89° C | 52% | 1020.7 hPa | 0 mm | - | 75 W/m² | - |
| 1788101222 | 13.33° C | 53% | 1021.2 hPa | 0 mm | - | 75 W/m² | - |
| 1788100918 | 12.78° C | 52% | 1020.9 hPa | 0 mm | - | 54 W/m² | - |
| 1788100614 | 11.67° C | 56% | 1021.1 hPa | 0 mm | - | 46 W/m² | - |
| 1788100312 | 10.56° C | 65% | 1021.1 hPa | 0 mm | - | 42 W/m² | - |
* Rain latest hour (hover to see other rain measurements)
** Current wind speed in m/s (hover to see current wind gust speed)